Miami, FL

4:13 AM EST on February 21, 2017 (GMT -0500)
Kendall-Tamiami Executive

Weather History for KTMB - August, 2013

Change the Weather History Date:

Thursday, August 29, 2013

  Actual Average Record
Temperature  
Mean Temperature 82 °F -  
Max Temperature 91 °F 88 °F 93 °F (1989)
Min Temperature 72 °F 71 °F 32 °F (2005)
Cooling Degree Days 16    
Growing Degree Days 32 (Base 50)    
Moisture  
Dew Point 73 °F    
Average Humidity 79    
Maximum Humidity 100    
Minimum Humidity 53    
Precipitation  
Precipitation 0.00 in - - ()
Sea Level Pressure  
Sea Level Pressure 30.00 in    
Wind  
Wind Speed 2 mph (ESE)    
Max Wind Speed 10 mph    
Max Gust Speed -    
Visibility 10 miles    
Events      
Averages and records for this station are not official NWS values.
T = Trace of Precipitation, MM = Missing Value Source: NWS Daily Summary

Daily Weather History Graph

Daily Weather History Graph

Search for Another Location

Airport or City:

Trip Planner

Search our weather history database for the weather conditions in past years. The results will help you decide how hot, cold, wet, or windy it might be!

Date:

Astronomy

Aug. 29, 2013 Rise Set
Actual Time 7:00 AM EDT 7:43 PM EDT
Civil Twilight 6:37 AM EDT 8:07 PM EDT
Nautical Twilight 6:10 AM EDT 8:34 PM EDT
Astronomical Twilight 5:41 AM EDT 9:02 PM EDT
Moon 1:08 AM EDT (8/29) 2:53 PM EDT (8/29)
Length of Visible Light 13h 29m
Length of Day
12h 42m
Last Quarter, 38% of the Moon is Illuminated
Aug 29
Last Quarter
Sep 5
New
Sep 12
First Quarter
Sep 19
Full
Sep 26
Last Quarter

Hourly Weather History & Observations

Time (EDT) Temp. Heat Index Dew Point Humidity Pressure Visibility Wind Dir Wind Speed Gust Speed Precip Events Conditions
12:53 AM 75.0 °F - 73.0 °F 94% 30.03 in 10.0 mi Calm Calm - N/A   Clear
1:53 AM 73.0 °F - 72.0 °F 96% 30.01 in 10.0 mi Calm Calm - N/A   Clear
2:53 AM 72.0 °F - 72.0 °F 100% 30.01 in 10.0 mi NW 3.5 mph - N/A   Clear
3:53 AM 73.0 °F - 73.0 °F 100% 29.99 in 10.0 mi Calm Calm - N/A   Clear
4:53 AM 72.0 °F - 72.0 °F 100% 29.98 in 4.0 mi Calm Calm - N/A   Clear
5:34 AM 73.4 °F - 73.4 °F 100% 29.99 in 10.0 mi Calm Calm - N/A   Partly Cloudy
5:53 AM 75.0 °F - 75.0 °F 100% 29.99 in 8.0 mi Calm Calm - N/A   Partly Cloudy
6:53 AM 75.0 °F - 75.0 °F 100% 30.00 in 10.0 mi Calm Calm - N/A   Clear
7:53 AM 75.9 °F - 75.9 °F 100% 30.01 in 10.0 mi NE 4.6 mph - N/A   Clear
8:53 AM 80.1 °F 85.8 °F 77.0 °F 90% 30.03 in 10.0 mi ENE 5.8 mph - N/A   Partly Cloudy
9:53 AM 84.0 °F 91.2 °F 73.9 °F 72% 30.03 in 10.0 mi Calm Calm - N/A   Partly Cloudy
10:53 AM 86.0 °F 93.8 °F 73.9 °F 67% 30.03 in 10.0 mi Variable 3.5 mph - N/A   Partly Cloudy
11:53 AM 89.1 °F 96.0 °F 72.0 °F 57% 30.02 in 10.0 mi ENE 6.9 mph - N/A   Clear
12:53 PM 91.0 °F 98.2 °F 72.0 °F 53% 30.02 in 10.0 mi East 5.8 mph - N/A   Partly Cloudy
1:53 PM 90.0 °F 99.0 °F 73.9 °F 59% 30.00 in 10.0 mi SE 5.8 mph - N/A   Partly Cloudy
2:53 PM 88.0 °F 93.8 °F 71.1 °F 57% 29.98 in 10.0 mi ESE 6.9 mph - N/A   Mostly Cloudy
3:53 PM 90.0 °F 96.4 °F 71.1 °F 54% 29.96 in 10.0 mi Calm Calm - N/A   Clear
4:53 PM 88.0 °F 94.7 °F 72.0 °F 59% 29.96 in 10.0 mi ESE 9.2 mph - N/A   Partly Cloudy
5:53 PM 87.1 °F 92.0 °F 70.0 °F 57% 29.95 in 10.0 mi ESE 10.4 mph - N/A   Clear
6:53 PM 86.0 °F 91.5 °F 71.1 °F 61% 29.95 in 10.0 mi SE 6.9 mph - N/A   Clear
7:53 PM 82.9 °F 89.4 °F 73.9 °F 74% 29.96 in 10.0 mi SSE 5.8 mph - N/A   Clear
8:53 PM 81.0 °F 86.2 °F 73.9 °F 79% 29.97 in 10.0 mi Calm Calm - N/A   Clear
9:53 PM 81.0 °F 85.8 °F 73.0 °F 77% 30.00 in 10.0 mi Calm Calm - N/A   Clear
10:53 PM 80.1 °F 84.2 °F 73.0 °F 79% 30.01 in 10.0 mi South 3.5 mph - N/A   Clear
11:53 PM 79.0 °F - 73.9 °F 84% 30.01 in 10.0 mi Calm Calm - N/A   Clear